THORAD DELTA 1 DEB, 8556

Orbit data source: Space-Track

THORAD DELTA 1 DEB, 8556 is space debris in SSO originally from a launch on Fri, 15 Nov 1974 UTC launched from the Air Force Western Test Range (AFWTR). Debris objects in space refer to the collection of defunct objects orbiting the Earth. Examples of debris include non-operational satellites, rocket bodies, and fragments generated from explosions, collisions, or faulty payload assembly.

Loading next visibility...
Identifier
8556, 1974-089CT
Orbit
SSO
Country
Flag of USUS
Related business
Manufacturer
Unknown
Mission
Spacecraft
Bus & Motor
Unknown
Mass
Unknown
Launch date (UTC)
1974-11-15 (52 years ago)
Launch vehicle
Unknown
Launch site
Air Force Western Test Range (AFWTR)
Object type
Payload
Rocket body
Debris
Shape & HBR
Unknown shape, 0.1 m
Radar Cross Section
Medium (>0.1 m² and <1 m²)

Expand to show TLE details & history
Last TLE update: 2 days ago

TLE from 2 days ago
0 THORAD DELTA 1 DEB
1  8556U 74089CT  26164.91163134  .00000142  00000-0  11435-2 0  9992
2  8556 101.3372 302.3512 0083064 173.5336 313.2532 12.53528449356554
Epoch: 2026-06-13T21:52Z
TLE epoch observation values (Epoch: 2026-06-13T21:52:44.947Z)
Latitude
52.49958°
Longitude
-92.9863°
Altitude
1,413.833 km
Speed
7.179 km/s
True Right ascension
09h 09m 41s
True Declination
52° 20' 50"
Sunlit
Object was in daylight at epoch
Visualization orbit readout
Latitude
Unknown
Longitude
Unknown
Altitude
Unknown
Speed
Unknown
Apparent Right ascension
Unknown
Apparent Declination
Unknown
Sunlit
N/A
Visualization observer readout
Local Sidereal Time
20:34:56
Azimuth
Unknown
Elevation
Unknown
Doppler factor
Unknown
Orbital elements
Apogee altitude
1,512.29 km
Perigee altitude
1,382.288 km
Semi-major axis
7,825.426 km
Eccentricity
0.00831
Inclination
101.3372°
RAAN
302.3512°
Arg. of periapsis
173.5336°
True anomaly
312.55499°
Mean anomaly
313.2532°
Eccentric anomaly
312.90459°
Mean motion
3.13531 °/min
Orbital period
114.82 mins
BSTAR
0.0011435
Loading maneuver chart data...
Computing Atmospheric mass density...

Documentation

Showing up to 5 results
|